Regional Weather Roundup
Issued by NWS

Home | Current Version | Previous Version | Graphics & Text | Print | Product List | Glossary On
Versions: 1 2 3 4 5 6 7 8 9 10 11 12 13 14 15 16 17 18 19 20 21 22 23 24 25 26 27
000
ASUS45 KPSR 090810
RWRAZ

ARIZONA HOURLY REGIONAL WEATHER ROUNDUP
NATIONAL WEATHER SERVICE PHOENIX AZ
100 AM MST FRI DEC 09 2016

NOTE: FAIR INDICATES FEW OR NO CLOUDS BELOW 12,000 FEET WITH NO
SIGNIFICANT WEATHER AND/OR OBSTRUCTIONS TO VISIBILITY.

AZZ001>003-036-090900-
NORTHWEST ARIZONA

CITY           SKY/WX    TMP DP  RH WIND       PRES   REMARKS
BULLHEAD CITY  CLOUDY    55  12  18 N6        30.26S
KINGMAN        CLOUDY    45  22  40 SE7       30.26F
$$

AZZ004>008-015-016-018-090900-
NORTH CENTRAL ARIZONA

CITY           SKY/WX    TMP DP  RH WIND       PRES   REMARKS
GRAND CANYON   PTCLDY    24  22  91 CALM      30.30F
WILLIAMS       CLEAR     30  27  86 S8        30.29F WCI  23
PRESCOTT       CLEAR     34  30  85 S7        30.27F WCI  28
FLAGSTAFF      CLEAR     25  24  96 SW3       30.30F
PAYSON         CLEAR     37  30  75 CALM      30.33S
PAGE           CLEAR     32   8  36 CALM      30.27F
$$

AZZ009>014-017-090900-
NORTHEAST ARIZONA

CITY           SKY/WX    TMP DP  RH WIND       PRES   REMARKS
WINSLOW        CLEAR     27  17  66 SE3       30.29S
SAINT JOHNS    CLEAR     29  22  75 S5        30.27F WCI  24
WINDOW ROCK    CLEAR     20  14  77 CALM      30.30S
SHOW LOW       CLEAR     34  27  75 S16       30.29F WCI  23
$$

AZZ023-090900-
GREATER PHOENIX AREA

CITY           SKY/WX    TMP DP  RH WIND       PRES   REMARKS
PHOENIX        CLEAR     52  42  69 E3        30.20S
BUCKEYE        CLEAR     48  36  61 N6        30.22F
LUKE AFB       CLEAR     49  38  66 NW6       30.20S
DEER VALLEY    CLEAR     51  39  63 CALM      30.20F
SCOTTSDALE     CLEAR     50  40  68 CALM      30.22S
MESA-GATEWAY   CLEAR     45  36  70 SE5       30.23R
$$

AZZ027-028-090900-
SOUTHWEST MARICOPA COUNTY AND PINAL COUNTY

CITY           SKY/WX    TMP DP  RH WIND       PRES   REMARKS
CASA GRANDE    NOT AVBL
GILA BEND      FAIR      50  33  53 SE8       30.20S
$$

AZZ503-504-507>509-090900-
SOUTHEAST ARIZONA

CITY           SKY/WX    TMP DP  RH WIND       PRES   REMARKS
TUCSON         CLEAR     44  32  62 SE7       30.25F
DAVIS-MONTHAN  CLEAR     43  32  65 SE7       30.24F
NOGALES        CLEAR     38  27  64 E3        30.25F
SIERRA VISTA   CLEAR     42  31  62 W2        30.29S
DOUGLAS        CLEAR     38  32  79 NE8       30.29S WCI  32
SAFFORD        CLEAR     43  31  62 SE10      30.32F
$$

AZZ020-021-025-026-031-090900-
SOUTHWEST ARIZONA

CITY           SKY/WX    TMP DP  RH WIND       PRES   REMARKS
YUMA           CLEAR     51  20  29 N5        30.21S
$$

CAZ031-033-041-043-047-048-061-090900-
SOUTHERN CALIFORNIA

CITY           SKY/WX    TMP DP  RH WIND       PRES   REMARKS
DOWNTOWN L.A.  CLEAR     54  50  86 CALM      30.26R
L.A. AIRPORT   PTCLDY    56  51  84 E5        30.26S
SAN DIEGO      PTCLDY    55  50  83 CALM      30.28F
BURBANK        CLEAR     51  42  71 N3        30.25S
ONTARIO        PTCLDY    51  43  74 CALM      30.26S
RIVERSIDE      PTCLDY    50  45  83 CALM      30.26F
PALM SPRINGS   PTCLDY    51  29  42 NW6       30.24F
EL CENTRO NAS  PTCLDY    44  21  40 W7        30.23S
IMPERIAL       PTCLDY    48  31  51 W3        30.21S
BLYTHE         CLEAR     45  13  27 N3        30.22F
NEEDLES        CLOUDY    54  13  19 NW7       30.26F
$$

NVZ020-UTZ003-090900-
SOUTHERN NEVADA-UTAH

CITY           SKY/WX    TMP DP  RH WIND       PRES   REMARKS
LAS VEGAS      MOCLDY    47  10  22 CALM      30.26F
SALT LAKE CITY CLOUDY    31  24  75 E5        30.15F WCI  26
$$

NMZ009-TXZ055-090900-
NEW MEXICO-WEST TEXAS

CITY           SKY/WX    TMP DP  RH WIND       PRES   REMARKS
ALBUQUERQUE    CLOUDY    27  21  78 SE7       30.36F WCI  19
EL PASO        MOCLDY    30  23  75 N5        30.43F WCI  25
$$


........................KEY........................
SKY/WX - SKY CONDITION/WEATHER
TMP    - TEMPERATURE IN FAHRENHEIT
DP     - DEW POINT IN FAHRENHEIT
RH     - RELATIVE HUMIDITY IN PERCENT
WIND   - DIRECTION AND SPEED IN MILES PER HOUR (MPH)
VRB    - VARIABLE WIND DIRECTION
PRES   - MEAN SEA LEVEL PRESSURE IN INCHES OF MERCURY
         F - FALLING PRESSURE   R - RISING PRESSURE
         S - STEADY PRESSURE
VSB    - VISIBILITY IN MILES
HX     - HEAT INDEX IN FAHRENHEIT
WCI    - WIND CHILL INDEX IN FAHRENHEIT
TC     - TEMPERATURE IN CELSIUS WHICH IS ALSO KNOWN AS
         TEMPERATURE IN CENTIGRADE
AFB    - AIR FORCE BASE
         LUKE AFB IS LUKE AIR FORCE BASE
         DAVIS-MONTHAN IS DAVIS-MONTHAN AIR FORCE BASE
NAS    - NAVAL AIR STATION
         EL CENTRO NAS IS EL CENTRO NAVAL AIR STATION
N/A    - NOT AVAILABLE





USA.gov is the U.S. government's official web portal to all federal, state and local government web resources and services.